Flag for Germany Weather past 2 weeks in Pulheim, North Rhine-Westphalia, Germany

Now
63 °F

Passing clouds.


Feels Like: 63 °F
Forecast: 63 / 90 °F
Wind: 2 mph from Southeast

Location: Noervenich

Current Time: Aug 3, 2015 at 1:18:18 AM

Latest Report: Aug 3, 2015 at 12:20 AM


Visibility: N/A

Pressure: 30.04 "Hg

Humidity: 73%

Dew point: 54 °F

Location of PulheimLocation

Historic Weather in Pulheim — Graph

°F

Pulheim temperature yesterday

Maximum temperature yesterday: 81 °F (at 6:20 PM)
Minimum temperature yesterday: 50 °F (at 6:20 AM)
Average temperature yesterday: 67 °F

Past Weeks' High & Low Weather Summary

 TemperatureHumidityPressure
High82 °F (Jul 21, 6:20 PM)100% (Jul 19, 4:20 AM)30.15 "Hg (Jul 19, 4:20 AM)
Low46 °F (Jul 31, 6:20 AM)34% (Aug 2, 3:20 PM)29.53 "Hg (Jul 25, 7:20 AM)
Average64 °F72%29.90 "Hg
* Reported Jul 18 11:20 PM — Aug 2 11:20 PM, Pulheim, Weather by CustomWeather, © 2015

Note: Actual official high and low records may vary slightly from our data, if they occured in-between our weather recording intervals... More about our weather records

Advertising

Pulheim weather history for previous 24 hours

 ConditionsComfort  
Time TempWeatherWind HumidityBarometerVisibility
11:20 PM
Sun, Aug 2
64 °FPassing clouds.No wind68%30.04 "HgN/A
10:20 PM68 °FPassing clouds.No wind60%30.04 "HgN/A
9:20 PM73 °FPartly sunny.2 mph50%30.04 "HgN/A
8:20 PM77 °FPartly sunny.3 mph42%30.04 "HgN/A
7:20 PM79 °FPartly sunny.5 mph37%30.04 "HgN/A
6:20 PM81 °FPartly sunny.5 mph34%30.04 "HgN/A
5:20 PM79 °FPartly sunny.3 mph34%30.07 "HgN/A
4:20 PM79 °FPartly sunny.3 mph34%30.07 "HgN/A
3:20 PM79 °FPartly sunny.3 mph34%30.09 "HgN/A
2:20 PM77 °FPartly sunny.2 mph39%30.09 "HgN/A
1:20 PM75 °FPartly sunny.2 mph41%30.12 "HgN/A
12:20 PM73 °FPartly sunny.2 mph44%30.12 "HgN/A
11:20 AM70 °FMild.2 mph53%30.15 "Hg4 mi
10:20 AM68 °FMild.1 mph56%30.15 "Hg5 mi
9:20 AM64 °FMild.1 mph68%30.12 "Hg5 mi
8:20 AM59 °FCool.No wind72%30.12 "Hg4 mi
7:20 AM55 °FCool.1 mph82%30.12 "Hg4 mi
6:20 AM50 °FCool.2 mph94%30.09 "Hg3 mi
5:20 AM54 °FCool.2 mph82%30.09 "Hg4 mi
4:20 AM55 °FCool.1 mph77%30.09 "Hg4 mi
3:20 AM57 °FCool.5 mph72%30.09 "Hg4 mi
2:20 AM57 °FCool.6 mph77%30.09 "Hg4 mi
1:20 AM59 °FCool.5 mph68%30.07 "Hg4 mi
Weather by CustomWeather, © 2015

See weather overviewHow to use our weather pages